"Pseudo-MPEC" for P10OD6t

Created 2019 Jun 20 9:07:17 UT using Find_Orb

Click here for an explanation of pseudo-MPECs

 
 Astrometry: 
     P10OD6t  C2019 05 07u8eFgyKVr;^'.u-O1xBMh=fLPrO`Ox5A=6G^5M:aAstrometryBSF51
     P10OD6t  C2019 05 07CP(P%m(!tp`BH2KcaIR]fh^%X1??Sredacted;L]TF!N=ux6[t^mF51
     P10OD6t  C2019 06 02E!/nTF5B*:T3NIclick:j-H7IJ?AEW[8o(^q7,K]uGB5^#P-=@:eF51
     P10OD6t  C2019 06 021iQ_iopJaeRE\DRa[M/#=e;toIki=0!5,ti!jm0EbFCn.Yuq6l6RF51
     P10OD6t  C2019 06 02@+U1tLBhereubv'6e\[XSkW;7Ucyh^J$+`0Kke7f8Y;TUwDt3%,fF51
     P10OD6t  C2019 06 02Jc'rD;`]fehLumr;*^-cSforarP+FdeRP52+4VGu9g:[miOe*Y#7F51
     P10OD6t ^C2019 06 07.56451617 29 44.747+15 46 52.35   ~67L7 22.14GVNEOCP568
     P10OD6t ^C2019 06 07.56546317 29 44.675+15 46 52.06   ~67L7 22.10GVNEOCP568
     P10OD6t ^C2019 06 07.56643717 29 44.598+15 46 51.71   ~67L7 22.08GVNEOCP568
     P10OD6t  C2019 06 10wWRI-8pK#Hld4xSDy(8@vsgeHSp\0-Yg:(ORR/!!?jSLi,T'Pnp#F51
     P10OD6t  C2019 06 10!f_1MrygTNs-N(.+^'O7Tx.E$9r/#MO_Vh^DBfq)nky^sOOMmM5mF51
     P10OD6t  C2019 06 10,NmX7explanationJ,@@kw.)u*olh=lYq*RFZ%ma;:mC-512U+#,F51
     P10OD6t  C2019 06 10m`'x/N@LtyC%RC917QH$9N9$:H0=/WW6Ufdu8_O\[%Wlp1M3Qo;DF51

Station data:
(568) Mauna Kea  (N19.826116 W155.472200)  US/Hawaii.
(F51) Pan-STARRS 1, Haleakala  (N20.707235 W156.255910)  US/Hawaii.
   Observers N. Primak, A. Schultz, S. Watters, J. Thiel, T. Goggia. Measurer
   PS1 Science Consortium. 1.8-m Ritchey-Chrétien + CCD.

Orbital elements:  P10OD6t
   Perihelion 2020 Aug 29.513219 +/- 0.315 TT = 12:19:02 (JD 2459091.013219)
Epoch 2019 Jun 10.0 TT = JDT 2458644.5   Earth MOID: 0.7577   AutoNEOCP
M 185.30835917 +/- 0.12             (J2000 ecliptic)
n   0.39123509 +/- 2.12e-5          Peri.  300.47539 +/- 0.09
a   1.85144513 +/- 6.68e-5          Node   131.47162 +/- 0.007
e   0.0885062 +/- 5e-5              Incl.   25.06972 +/- 0.0031
P   2.52/920.15d           H 19.8   G  0.15   U  5.6  
q 1.68758058 +/- 8.38e-5    Q 2.01530968 +/- 0.000142
From 13 observations 2019 May 7-June 10; mean residual 0".05
Residuals in arcseconds: 
190507 F51  .02-  .09-    190602 F51  .10-  .04-    190610 F51  .02+  .00     
190507 F51  .03+  .09+    190607 568  .03+  .01-    190610 F51  .05-  .02-    
190602 F51  .10+  .00     190607 568  .04+  .02+    190610 F51  .08-  .05+    
190602 F51  .08-  .01-    190607 568  .02+  .01-    
190602 F51  .04+  .05+    190610 F51  .06+  .04-    

Ephemerides (geocentric):
Date (UTC) HH   RA              Dec         delta   r     elong  mag " sig PA
---- -- -- --  -------------   -----------  ------ ------ -----  --- ---- ---
2019 06 20 09  17 13 38.396   +13 55 16.88  1.1169 2.0135 141.4 22.5 .647 172
2019 06 20 10  17 13 35.336   +13 54 47.14  1.1170 2.0135 141.4 22.5 .649 172
2019 06 20 11  17 13 32.277   +13 54 17.35  1.1170 2.0135 141.4 22.5 .652 172
2019 06 20 12  17 13 29.220   +13 53 47.51  1.1170 2.0134 141.4 22.5 .655 172
2019 06 20 13  17 13 26.164   +13 53 17.62  1.1170 2.0134 141.4 22.5 .657 172
2019 06 20 14  17 13 23.109   +13 52 47.69  1.1171 2.0134 141.4 22.5 .660 172
2019 06 20 15  17 13 20.056   +13 52 17.70  1.1171 2.0134 141.4 22.5 .662 172
2019 06 20 16  17 13 17.003   +13 51 47.67  1.1171 2.0134 141.4 22.5 .665 172
2019 06 20 17  17 13 13.952   +13 51 17.59  1.1172 2.0134 141.3 22.5 .667 172
2019 06 20 18  17 13 10.903   +13 50 47.46  1.1172 2.0134 141.3 22.5 .670 172
2019 06 20 19  17 13 07.854   +13 50 17.28  1.1172 2.0134 141.3 22.5 .673 172
2019 06 20 20  17 13 04.807   +13 49 47.05  1.1173 2.0134 141.3 22.5 .675 171
2019 06 20 21  17 13 01.761   +13 49 16.78  1.1173 2.0134 141.3 22.5 .678 171
2019 06 20 22  17 12 58.717   +13 48 46.46  1.1174 2.0134 141.3 22.5 .680 171
2019 06 20 23  17 12 55.674   +13 48 16.08  1.1174 2.0134 141.3 22.5 .683 171
2019 06 21 00  17 12 52.632   +13 47 45.66  1.1174 2.0134 141.3 22.5 .685 171
2019 06 21 01  17 12 49.591   +13 47 15.19  1.1175 2.0134 141.3 22.5 .688 171
2019 06 21 02  17 12 46.552   +13 46 44.68  1.1175 2.0134 141.3 22.5 .691 171
2019 06 21 03  17 12 43.515   +13 46 14.11  1.1175 2.0133 141.3 22.5 .693 171
2019 06 21 04  17 12 40.478   +13 45 43.50  1.1176 2.0133 141.3 22.5 .696 171
2019 06 21 05  17 12 37.443   +13 45 12.84  1.1176 2.0133 141.3 22.5 .698 171
2019 06 21 06  17 12 34.409   +13 44 42.13  1.1176 2.0133 141.3 22.5 .701 171
2019 06 21 07  17 12 31.377   +13 44 11.37  1.1177 2.0133 141.2 22.5 .704 171
2019 06 21 08  17 12 28.346   +13 43 40.57  1.1177 2.0133 141.2 22.5 .706 171
2019 06 21 09  17 12 25.316   +13 43 09.71  1.1178 2.0133 141.2 22.5 .709 171
2019 06 21 10  17 12 22.288   +13 42 38.81  1.1178 2.0133 141.2 22.5 .711 171
2019 06 21 11  17 12 19.262   +13 42 07.86  1.1178 2.0133 141.2 22.5 .714 171
2019 06 21 12  17 12 16.236   +13 41 36.87  1.1179 2.0133 141.2 22.5 .717 171
2019 06 21 13  17 12 13.212   +13 41 05.82  1.1179 2.0133 141.2 22.5 .719 171
2019 06 21 14  17 12 10.190   +13 40 34.73  1.1180 2.0133 141.2 22.5 .722 171
2019 06 21 15  17 12 07.169   +13 40 03.59  1.1180 2.0133 141.2 22.5 .725 171
2019 06 21 16  17 12 04.149   +13 39 32.40  1.1180 2.0133 141.2 22.5 .727 171
2019 06 21 17  17 12 01.131   +13 39 01.17  1.1181 2.0133 141.2 22.5 .730 170
2019 06 21 18  17 11 58.114   +13 38 29.88  1.1181 2.0132 141.2 22.5 .732 170
2019 06 21 19  17 11 55.099   +13 37 58.55  1.1182 2.0132 141.2 22.5 .735 170
2019 06 21 20  17 11 52.085   +13 37 27.18  1.1182 2.0132 141.1 22.5 .738 170
2019 06 21 21  17 11 49.072   +13 36 55.75  1.1183 2.0132 141.1 22.5 .740 170
2019 06 21 22  17 11 46.061   +13 36 24.28  1.1183 2.0132 141.1 22.5 .743 170
2019 06 21 23  17 11 43.052   +13 35 52.76  1.1183 2.0132 141.1 22.5 .746 170
2019 06 22 00  17 11 40.044   +13 35 21.19  1.1184 2.0132 141.1 22.5 .748 170
2019 06 22 01  17 11 37.037   +13 34 49.57  1.1184 2.0132 141.1 22.5 .751 170
2019 06 22 02  17 11 34.032   +13 34 17.91  1.1185 2.0132 141.1 22.5 .754 170
2019 06 22 03  17 11 31.029   +13 33 46.20  1.1185 2.0132 141.1 22.5 .756 170
2019 06 22 04  17 11 28.027   +13 33 14.44  1.1186 2.0132 141.1 22.5 .759 170
2019 06 22 05  17 11 25.026   +13 32 42.64  1.1186 2.0132 141.1 22.5 .761 170
2019 06 22 06  17 11 22.027   +13 32 10.79  1.1187 2.0132 141.1 22.5 .764 170
2019 06 22 07  17 11 19.030   +13 31 38.89  1.1187 2.0132 141.1 22.5 .767 170
2019 06 22 08  17 11 16.034   +13 31 06.95  1.1188 2.0132 141.0 22.5 .769 170